User: anonymous   Login
Location: Unspecified
(0.0000°N, 0.0000°E)
Time: 19:15:05
(UTC+00:00)
Language:

STARLINK-5611 - Orbit

View from above orbital plane
View from above orbital plane
View from above satellite
View from above satellite

Ground track
Ground track

The orbit is defined by the following mean orbital elements,

1 55761U          26145.43096463 +.00000000 +00000-0 -18447-4 0 00009
2 55761  69.9999  31.1522 0002904 269.1697  90.9129 14.98332297    04
Epoch (UTC): 25 May 2026 10:20:35
Eccentricity: 0.0002904
inclination: 69.9999°
perigee height: 570 km
apogee height: 574 km
right ascension of ascending node: 31.1522°
argument of perigee: 269.1697°
revolutions per day: 14.98332297
mean anomaly at epoch: 90.9129°

The dashed part of the orbit path shows where the satellite is in the earth's shadow,  

DLR